Location: Cahas Mountain Overlook
(37.0833°N, 80.1000°W)
Time: 08:30:32
(UTC-04:00)

Explorer 7 - Pass Details

Date: 10 February 2026
Orbit: 430 x 540 km, 50.2° (Epoch: 14 March)

Event Time Altitude Azimuth Distance (km) Brightness Sun altitude
Rises 00:52:27 0° 307° (NW) 2,662 - -66.9°
Reaches altitude 10° 00:54:39 10° 306° (NW) 1,784 - -66.8°
Maximum altitude 00:58:44 78° 220° (SW) 557 - -66.6°
Drops below altitude 10° 01:02:51 10° 134° (SE) 1,806 - -66.4°
Sets 01:05:06 0° 133° (SE) 2,698 - -66.3°
